Location: site
(53.0000°N, 23.0500°E)
Time: 17:31:27
(UTC+01:00)

SAOCOM 1-A - Pass Details

Date: 22 January 2020
Orbit: 621 x 623 km, 97.9° (Epoch: 25 February)

Event Time Altitude Azimuth Distance (km) Brightness Sun altitude
Exits shadow 17:07:14 - 29° (NNE) 2,238 ? -11.0°
Reaches altitude 10° 17:07:53 10° 34° (NNE) 2,005 ? -11.0°
Maximum altitude 17:11:41 29° 94° (E) 1,159 ? -11.6°
Drops below altitude 10° 17:15:27 10° 155° (SSE) 1,990 ? -12.1°
Sets 17:17:52 0° 167° (SSE) 2,891 ? -12.5°
